Tracking 29528 objects as of 14-Sep-2024
HD Live streaming from Space Station
objects crossing your sky now

COSMOS 1691 DEB

Track COSMOS 1691 DEB now!
10-day predictions


NORAD ID: 19111
Int'l Code: 1985-094V
Perigee: 1,376.3 km
Apogee: 1,403.4 km
Inclination: 82.6 °
Period: 113.4 minutes
Semi major axis: 7760 km
RCS: 0.0114 m2 (small)
Launch date: October 9, 1985
Source: Commonwealth of Independent States (former USSR) (CIS)
Launch site: PLESETSK MISSILE AND SPACE COMPLEX (PKMTR)

Note: This is SATELLITE DEBRIS
Your satellite tracking list
Your tracking list is empty




NASA's NSSDC Master Catalog

Two Line Element Set (TLE):
1 19111U 85094W   24256.78427442  .00000683  00000-0  33932-2 0  9995
2 19111  82.6014 259.3155 0017476  88.4745  88.2033 12.69819493691740
Source of the keplerian elements: AFSPC